| time (UTC) | temp F | wind direction | speed MPH | gust MPH | rain 1hr in | rain 24hr in | rain mn in | humidity % | barometer mb |
| 20260510133045 | 67 | 119 | 14.0 | 22.0 | 0.00 | 0.15 | 0.00 | 84 | 1009.2 |
| 20260510132545 | 67 | 161 | 13.0 | 19.0 | 0.00 | 0.15 | 0.00 | 83 | 1009.2 |
| 20260510132045 | 67 | 131 | 20.0 | 24.0 | 0.00 | 0.15 | 0.00 | 83 | 1009.3 |
| 20260510131545 | 67 | 148 | 8.0 | 20.0 | 0.00 | 0.15 | 0.00 | 84 | 1009.3 |
| 20260510131045 | 67 | 142 | 18.0 | 18.0 | 0.00 | 0.15 | 0.00 | 84 | 1009.4 |
| 20260510130548 | 67 | 153 | 8.0 | 21.0 | 0.00 | 0.15 | 0.00 | 84 | 1009.3 |
| 20260510130045 | 66 | 134 | 10.0 | 19.0 | 0.00 | 0.15 | 0.00 | 85 | 1009.4 |
| 20260510125545 | 66 | 121 | 12.0 | 19.0 | 0.00 | 0.15 | 0.00 | 85 | 1009.5 |
| 20260510125048 | 66 | 129 | 7.0 | 14.0 | 0.00 | 0.15 | 0.00 | 86 | 1009.5 |
| 20260510124545 | 65 | 175 | 12.0 | 15.0 | 0.00 | 0.15 | 0.00 | 87 | 1009.5 |
| 20260510124045 | 65 | 165 | 11.0 | 18.0 | 0.00 | 0.15 | 0.00 | 87 | 1009.6 |
| 20260510123545 | 65 | 136 | 15.0 | 16.0 | 0.00 | 0.15 | 0.00 | 88 | 1009.6 |
| 20260510123045 | 64 | 122 | 12.0 | 21.0 | 0.00 | 0.15 | 0.00 | 88 | 1009.7 |
| 20260510122545 | 64 | 113 | 9.0 | 16.0 | 0.00 | 0.15 | 0.00 | 88 | 1009.8 |
| 20260510122045 | 64 | 151 | 6.0 | 17.0 | 0.00 | 0.15 | 0.00 | 86 | 1009.9 |
| 20260510121545 | 65 | 140 | 10.0 | 16.0 | 0.00 | 0.15 | 0.00 | 86 | 1009.9 |
| 20260510121048 | 65 | 128 | 9.0 | 18.0 | 0.00 | 0.15 | 0.00 | 85 | 1009.8 |
| 20260510120546 | 65 | 132 | 15.0 | 23.0 | 0.00 | 0.15 | 0.00 | 83 | 1009.8 |
| 20260510120045 | 66 | 150 | 14.0 | 20.0 | 0.00 | 0.15 | 0.00 | 80 | 1009.8 |
| 20260510115545 | 67 | 155 | 10.0 | 25.0 | 0.00 | 0.15 | 0.00 | 77 | 1009.9 |
| 20260510115048 | 67 | 142 | 10.0 | 26.0 | 0.00 | 0.15 | 0.00 | 77 | 1009.8 |
| 20260510114545 | 68 | 167 | 19.0 | 26.0 | 0.00 | 0.15 | 0.00 | 76 | 1009.8 |
| 20260510114045 | 68 | 139 | 14.0 | 25.0 | 0.00 | 0.15 | 0.00 | 75 | 1009.8 |
| 20260510113545 | 68 | 144 | 11.0 | 20.0 | 0.00 | 0.15 | 0.00 | 75 | 1009.9 |
| 20260510113045 | 68 | 128 | 20.0 | 24.0 | 0.00 | 0.15 | 0.00 | 73 | 1010.0 |
| 20260510112545 | 68 | 176 | 15.0 | 24.0 | 0.00 | 0.15 | 0.00 | 73 | 1009.9 |
| 20260510112045 | 69 | 152 | 16.0 | 28.0 | 0.00 | 0.15 | 0.00 | 73 | 1009.6 |
| 20260510111548 | 68 | 161 | 17.0 | 27.0 | 0.00 | 0.15 | 0.00 | 73 | 1009.8 |
| 20260510111045 | 68 | 159 | 9.0 | 22.0 | 0.00 | 0.15 | 0.00 | 73 | 1009.9 |
| 20260510110545 | 68 | 148 | 15.0 | 26.0 | 0.00 | 0.15 | 0.00 | 73 | 1010.0 |
| 20260510110045 | 68 | 149 | 9.0 | 22.0 | 0.00 | 0.15 | 0.00 | 73 | 1010.2 |
| 20260510105545 | 68 | 154 | 16.0 | 26.0 | 0.00 | 0.15 | 0.00 | 72 | 1010.1 |
| 20260510105045 | 68 | 152 | 11.0 | 24.0 | 0.00 | 0.15 | 0.00 | 72 | 1010.0 |
| 20260510104545 | 68 | 173 | 11.0 | 31.0 | 0.00 | 0.15 | 0.00 | 71 | 1010.0 |
| 20260510104048 | 69 | 211 | 9.0 | 20.0 | 0.00 | 0.15 | 0.00 | 71 | 1009.9 |
| 20260510103545 | 69 | 140 | 7.0 | 23.0 | 0.00 | 0.15 | 0.00 | 71 | 1010.0 |
| 20260510103045 | 69 | 200 | 13.0 | 21.0 | 0.00 | 0.15 | 0.00 | 70 | 1010.0 |
| 20260510102545 | 69 | 134 | 10.0 | 20.0 | 0.00 | 0.15 | 0.00 | 70 | 1010.1 |
| 20260510102048 | 69 | 173 | 8.0 | 18.0 | 0.00 | 0.15 | 0.00 | 69 | 1010.2 |
| 20260510101545 | 69 | 146 | 13.0 | 25.0 | 0.00 | 0.15 | 0.00 | 68 | 1010.3 |
| 20260510101045 | 69 | 151 | 16.0 | 26.0 | 0.00 | 0.15 | 0.00 | 68 | 1010.3 |
| 20260510100548 | 70 | 148 | 14.0 | 19.0 | 0.00 | 0.15 | 0.00 | 68 | 1010.5 |
| 20260510100045 | 70 | 158 | 11.0 | 18.0 | 0.00 | 0.15 | 0.00 | 69 | 1010.1 |
| 20260510095545 | 70 | 146 | 11.0 | 25.0 | 0.00 | 0.15 | 0.00 | 68 | 1010.2 |
| 20260510095046 | 70 | 93 | 21.0 | 26.0 | 0.00 | 0.15 | 0.00 | 68 | 1010.2 |
| 20260510094546 | 70 | 177 | 20.0 | 28.0 | 0.00 | 0.15 | 0.00 | 68 | 1010.2 |
| 20260510094046 | 69 | 138 | 13.0 | 33.0 | 0.00 | 0.15 | 0.00 | 69 | 1010.1 |
| 20260510093545 | 69 | 144 | 12.0 | 20.0 | 0.00 | 0.15 | 0.00 | 71 | 1010.3 |
| 20260510093045 | 69 | 142 | 13.0 | 22.0 | 0.00 | 0.15 | 0.00 | 72 | 1010.5 |
| 20260510092545 | 68 | 135 | 9.0 | 18.0 | 0.00 | 0.15 | 0.00 | 72 | 1010.5 |
| 20260510092045 | 68 | 132 | 9.0 | 19.0 | 0.00 | 0.15 | 0.00 | 73 | 1010.5 |
| 20260510091548 | 67 | 153 | 11.0 | 22.0 | 0.00 | 0.15 | 0.00 | 73 | 1010.6 |
| 20260510091045 | 67 | 148 | 4.0 | 25.0 | 0.00 | 0.15 | 0.00 | 73 | 1010.6 |
| 20260510090545 | 67 | 102 | 15.0 | 22.0 | 0.00 | 0.15 | 0.00 | 74 | 1010.7 |
| 20260510090045 | 67 | 178 | 14.0 | 17.0 | 0.00 | 0.15 | 0.00 | 75 | 1010.8 |
| 20260510085545 | 67 | 165 | 11.0 | 14.0 | 0.00 | 0.15 | 0.00 | 77 | 1010.9 |
| 20260510085045 | 66 | 149 | 8.0 | 14.0 | 0.00 | 0.15 | 0.00 | 77 | 1011.0 |
| 20260510084545 | 66 | 139 | 10.0 | 12.0 | 0.00 | 0.15 | 0.00 | 79 | 1011.0 |
| 20260510084045 | 66 | 161 | 6.0 | 11.0 | 0.00 | 0.15 | 0.00 | 78 | 1011.1 |
| 20260510083548 | 65 | 146 | 6.0 | 11.0 | 0.00 | 0.15 | 0.00 | 78 | 1011.1 |
| 20260510083048 | 65 | 142 | 8.0 | 12.0 | 0.00 | 0.15 | 0.00 | 78 | 1011.0 |
| 20260510082545 | 65 | 156 | 6.0 | 12.0 | 0.00 | 0.15 | 0.00 | 78 | 1011.0 |
| 20260510082045 | 65 | 162 | 7.0 | 11.0 | 0.00 | 0.15 | 0.00 | 78 | 1010.9 |
| 20260510081545 | 65 | 144 | 9.0 | 12.0 | 0.00 | 0.15 | 0.00 | 79 | 1010.9 |
| 20260510081045 | 65 | 151 | 6.0 | 9.0 | 0.00 | 0.15 | 0.00 | 79 | 1011.0 |
| 20260510080545 | 65 | 133 | 7.0 | 9.0 | 0.00 | 0.15 | 0.00 | 79 | 1011.0 |
| 20260510080045 | 65 | 175 | 4.0 | 9.0 | 0.00 | 0.15 | 0.00 | 78 | 1011.0 |
| 20260510075545 | 65 | 121 | 5.0 | 10.0 | 0.00 | 0.15 | 0.00 | 77 | 1011.0 |
| 20260510075045 | 65 | 138 | 8.0 | 11.0 | 0.00 | 0.15 | 0.00 | 76 | 1010.9 |
| 20260510074545 | 65 | 147 | 9.0 | 12.0 | 0.00 | 0.15 | 0.00 | 76 | 1010.8 |
| 20260510074045 | 66 | 175 | 6.0 | 13.0 | 0.00 | 0.15 | 0.00 | 77 | 1010.9 |
| 20260510073545 | 66 | 173 | 5.0 | 11.0 | 0.00 | 0.15 | 0.00 | 76 | 1010.8 |
| 20260510073045 | 66 | 163 | 7.0 | 12.0 | 0.00 | 0.15 | 0.00 | 76 | 1010.8 |
| 20260510072545 | 66 | 135 | 9.0 | 12.0 | 0.00 | 0.15 | 0.00 | 76 | 1010.8 |
| 20260510072045 | 66 | 140 | 8.0 | 11.0 | 0.00 | 0.15 | 0.00 | 76 | 1010.8 |
| 20260510071545 | 66 | 153 | 5.0 | 16.0 | 0.00 | 0.15 | 0.00 | 76 | 1010.9 |
| 20260510071045 | 65 | 140 | 3.0 | 9.0 | 0.00 | 0.15 | 0.00 | 77 | 1010.8 |
| 20260510070545 | 65 | 151 | 4.0 | 9.0 | 0.00 | 0.15 | 0.00 | 79 | 1010.9 |
| 20260510070045 | 64 | 143 | 3.0 | 6.0 | 0.00 | 0.15 | 0.00 | 80 | 1010.9 |
| 20260510065545 | 64 | 121 | 3.0 | 5.0 | 0.00 | 0.15 | 0.00 | 82 | 1010.9 |
| 20260510065048 | 63 | 80 | 1.0 | 6.0 | 0.00 | 0.15 | 0.00 | 85 | 1010.9 |
| 20260510064545 | 62 | 321 | 1.0 | 3.0 | 0.00 | 0.15 | 0.00 | 86 | 1011.0 |
| 20260510064045 | 62 | 321 | 1.0 | 4.0 | 0.00 | 0.15 | 0.00 | 86 | 1011.0 |
| 20260510063545 | 62 | 317 | 2.0 | 5.0 | 0.00 | 0.15 | 0.00 | 86 | 1011.0 |
| 20260510063045 | 62 | 318 | 2.0 | 4.0 | 0.00 | 0.15 | 0.00 | 86 | 1011.0 |
| 20260510062545 | 62 | 138 | 1.0 | 2.0 | 0.00 | 0.15 | 0.00 | 86 | 1011.1 |
| 20260510062045 | 61 | 138 | 0.0 | 2.0 | 0.01 | 0.15 | 0.00 | 87 | 1011.1 |
| 20260510061548 | 61 | 138 | 1.0 | 4.0 | 0.03 | 0.15 | 0.00 | 87 | 1011.1 |
| 20260510061045 | 61 | 138 | 3.0 | 4.0 | 0.03 | 0.15 | 0.00 | 88 | 1011.1 |
| 20260510060545 | 61 | 106 | 1.0 | 13.0 | 0.03 | 0.15 | 0.00 | 88 | 1010.7 |
| 20260510060045 | 61 | 111 | 7.0 | 13.0 | 0.03 | 0.15 | 0.00 | 88 | 1010.3 |
| 20260510055545 | 60 | 131 | 4.0 | 9.0 | 0.03 | 0.15 | 0.00 | 89 | 1010.4 |
| 20260510055048 | 60 | 112 | 7.0 | 9.0 | 0.03 | 0.15 | 0.00 | 89 | 1010.9 |
| 20260510054545 | 60 | 54 | 1.0 | 2.0 | 0.03 | 0.15 | 0.00 | 89 | 1011.3 |
| 20260510054046 | 60 | 54 | 0.0 | 1.0 | 0.03 | 0.15 | 0.00 | 89 | 1011.3 |
| 20260510053545 | 60 | 54 | 0.0 | 7.0 | 0.02 | 0.14 | 0.00 | 89 | 1011.2 |
| 20260510053045 | 60 | 29 | 4.0 | 10.0 | 0.02 | 0.14 | 0.00 | 88 | 1011.3 |
| 20260510052545 | 60 | 59 | 3.0 | 7.0 | 0.02 | 0.14 | 0.00 | 88 | 1011.2 |
| 20260510052045 | 60 | 61 | 3.0 | 5.0 | 0.01 | 0.14 | 0.00 | 87 | 1011.7 |
| 20260510051548 | 60 | 78 | 2.0 | 9.0 | 0.00 | 0.12 | 0.00 | 87 | 1011.8 |
| 20260510051045 | 60 | 33 | 6.0 | 8.0 | 0.00 | 0.12 | 0.00 | 87 | 1011.8 |
| 20260510050545 | 60 | 348 | 2.0 | 7.0 | 0.00 | 0.12 | 0.00 | 87 | 1012.3 |
| 20260510050045 | 60 | 349 | 5.0 | 6.0 | 0.00 | 0.12 | 0.00 | 87 | 1012.3 |
| 20260510045545 | 60 | 355 | 6.0 | 8.0 | 0.00 | 0.12 | 0.00 | 87 | 1012.3 |
| 20260510045045 | 60 | 333 | 3.0 | 6.0 | 0.00 | 0.12 | 0.00 | 87 | 1012.2 |
| 20260510044545 | 60 | 34 | 3.0 | 8.0 | 0.00 | 0.12 | 0.00 | 87 | 1012.2 |
| 20260510044045 | 60 | 5 | 4.0 | 8.0 | 0.00 | 0.12 | 0.00 | 87 | 1012.2 |
| 20260510043545 | 60 | 18 | 1.0 | 5.0 | 0.00 | 0.12 | 0.00 | 87 | 1012.4 |
| 20260510043048 | 60 | 345 | 4.0 | 8.0 | 0.00 | 0.12 | 0.00 | 87 | 1012.3 |
| 20260510042548 | 60 | 331 | 4.0 | 8.0 | 0.00 | 0.12 | 0.00 | 86 | 1012.4 |
| 20260510042045 | 60 | 350 | 5.0 | 9.0 | 0.00 | 0.12 | 0.00 | 86 | 1012.3 |
| 20260510041545 | 61 | 337 | 6.0 | 9.0 | 0.00 | 0.12 | 0.00 | 86 | 1012.3 |
| 20260510041045 | 60 | 355 | 4.0 | 10.0 | 0.00 | 0.12 | 0.00 | 86 | 1012.3 |
| 20260510040545 | 60 | 0 | 9.0 | 10.0 | 0.00 | 0.12 | 0.00 | 87 | 1012.3 |
| 20260510040045 | 60 | 9 | 5.0 | 9.0 | 0.00 | 0.12 | 0.00 | 87 | 1012.4 |
| 20260510035545 | 60 | 14 | 4.0 | 9.0 | 0.00 | 0.12 | 0.00 | 87 | 1012.4 |
| 20260510035045 | 60 | 38 | 5.0 | 6.0 | 0.00 | 0.12 | 0.00 | 87 | 1012.4 |
| 20260510034548 | 60 | 319 | 4.0 | 10.0 | 0.00 | 0.12 | 0.00 | 88 | 1012.4 |
| 20260510034045 | 60 | 325 | 8.0 | 10.0 | 0.00 | 0.12 | 0.00 | 88 | 1012.3 |
| 20260510033545 | 60 | 340 | 4.0 | 9.0 | 0.00 | 0.12 | 0.00 | 88 | 1012.1 |
| 20260510033045 | 60 | 17 | 3.0 | 8.0 | 0.00 | 0.12 | 0.00 | 88 | 1012.1 |
| 20260510032545 | 60 | 75 | 4.0 | 9.0 | 0.00 | 0.12 | 0.00 | 88 | 1012.1 |
| 20260510032045 | 59 | 67 | 4.0 | 7.0 | 0.00 | 0.12 | 0.00 | 88 | 1012.3 |
| 20260510031545 | 59 | 63 | 3.0 | 7.0 | 0.00 | 0.12 | 0.00 | 88 | 1012.6 |
| 20260510031045 | 59 | 38 | 2.0 | 7.0 | 0.00 | 0.12 | 0.00 | 88 | 1012.7 |
| 20260510030548 | 59 | 49 | 1.0 | 6.0 | 0.01 | 0.12 | 0.00 | 88 | 1012.8 |
| 20260510030048 | 59 | 5 | 5.0 | 6.0 | 0.01 | 0.12 | 0.00 | 88 | 1012.8 |
| 20260510025545 | 59 | 52 | 2.0 | 5.0 | 0.02 | 0.12 | 0.00 | 88 | 1012.9 |
| 20260510025045 | 59 | 31 | 4.0 | 5.0 | 0.03 | 0.12 | 0.00 | 88 | 1013.1 |
| 20260510024545 | 59 | 349 | 2.0 | 5.0 | 0.04 | 0.12 | 0.00 | 88 | 1013.2 |
| 20260510024045 | 59 | 32 | 3.0 | 4.0 | 0.05 | 0.12 | 0.00 | 87 | 1013.3 |
| 20260510023545 | 59 | 5 | 4.0 | 3.0 | 0.08 | 0.12 | 0.00 | 88 | 1013.4 |
| 20260510023045 | 59 | 5 | 2.0 | 5.0 | 0.09 | 0.12 | 0.00 | 88 | 1013.4 |
| 20260510022545 | 59 | 5 | 4.0 | 4.0 | 0.09 | 0.12 | 0.00 | 87 | 1013.3 |
| 20260510022045 | 60 | 355 | 1.0 | 4.0 | 0.09 | 0.12 | 0.00 | 87 | 1013.3 |
| 20260510021545 | 59 | 169 | 1.0 | 2.0 | 0.09 | 0.11 | 0.00 | 87 | 1013.4 |
| 20260510021046 | 60 | 169 | 0.0 | 1.0 | 0.09 | 0.11 | 0.00 | 87 | 1013.5 |
| 20260510020545 | 60 | 169 | 0.0 | 5.0 | 0.08 | 0.11 | 0.00 | 87 | 1013.6 |
| 20260510020045 | 60 | 165 | 5.0 | 6.0 | 0.08 | 0.11 | 0.00 | 86 | 1013.6 |
| 20260510015548 | 61 | 140 | 3.0 | 3.0 | 0.07 | 0.10 | 0.00 | 85 | 1013.5 |
| 20260510015045 | 61 | 94 | 1.0 | 1.0 | 0.07 | 0.09 | 0.00 | 85 | 1013.5 |
| 20260510014545 | 61 | 94 | 0.0 | 2.0 | 0.05 | 0.07 | 0.00 | 85 | 1013.4 |
| 20260510014045 | 61 | 89 | 1.0 | 4.0 | 0.04 | 0.07 | 0.00 | 84 | 1013.4 |
| 20260510013545 | 61 | 87 | 4.0 | 6.0 | 0.01 | 0.03 | 0.00 | 84 | 1013.3 |
| 20260510013045 | 61 | 175 | 2.0 | 3.0 | 0.00 | 0.03 | 0.00 | 84 | 1013.5 |
| 20260510012545 | 61 | 175 | 0.0 | 4.0 | 0.00 | 0.03 | 0.00 | 84 | 1013.4 |
| 20260510012045 | 61 | 175 | 2.0 | 3.0 | 0.00 | 0.03 | 0.00 | 84 | 1013.1 |
| 20260510011545 | 61 | 176 | 0.0 | 5.0 | 0.00 | 0.02 | 0.00 | 85 | 1013.0 |
| 20260510011045 | 61 | 134 | 1.0 | 4.0 | 0.00 | 0.02 | 0.00 | 85 | 1012.7 |
| 20260510010545 | 61 | 96 | 0.0 | 9.0 | 0.00 | 0.02 | 0.00 | 85 | 1012.4 |
| 20260510010048 | 61 | 148 | 4.0 | 8.0 | 0.00 | 0.02 | 0.00 | 85 | 1012.4 |
| 20260510005548 | 61 | 163 | 4.0 | 9.0 | 0.00 | 0.02 | 0.00 | 85 | 1012.4 |
| 20260510005045 | 61 | 117 | 4.0 | 9.0 | 0.00 | 0.02 | 0.00 | 85 | 1012.3 |
| 20260510004545 | 61 | 170 | 2.0 | 10.0 | 0.00 | 0.02 | 0.00 | 85 | 1012.2 |
| 20260510004045 | 61 | 143 | 2.0 | 9.0 | 0.00 | 0.02 | 0.00 | 86 | 1012.3 |
| 20260510003545 | 61 | 177 | 4.0 | 10.0 | 0.00 | 0.02 | 0.00 | 85 | 1012.0 |
| 20260510003045 | 61 | 160 | 5.0 | 9.0 | 0.00 | 0.02 | 0.00 | 85 | 1012.1 |
| 20260510002545 | 61 | 85 | 9.0 | 10.0 | 0.00 | 0.02 | 0.00 | 86 | 1012.1 |
| 20260510002048 | 61 | 117 | 6.0 | 9.0 | 0.00 | 0.02 | 0.00 | 86 | 1012.4 |
| 20260510001545 | 61 | 113 | 7.0 | 7.0 | 0.00 | 0.02 | 0.00 | 86 | 1012.8 |
| 20260510001048 | 61 | 96 | 2.0 | 7.0 | 0.00 | 0.02 | 0.00 | 85 | 1013.2 |
| 20260510000548 | 62 | 101 | 2.0 | 6.0 | 0.00 | 0.02 | 0.00 | 84 | 1013.3 |
| 20260510000045 | 62 | 112 | 1.0 | 4.0 | 0.01 | 0.02 | 0.00 | 84 | 1013.5 |
| 20260509235545 | 62 | 99 | 2.0 | 4.0 | 0.02 | 0.02 | 0.00 | 83 | 1013.6 |
| 20260509235045 | 62 | 103 | 3.0 | 5.0 | 0.02 | 0.02 | 0.00 | 84 | 1013.7 |
| 20260509234545 | 62 | 198 | 2.0 | 3.0 | 0.02 | 0.02 | 0.00 | 84 | 1013.9 |
| 20260509234050 | 62 | 198 | 3.0 | 4.0 | 0.02 | 0.02 | 0.00 | 84 | 1014.1 |
| 20260509233545 | 63 | 198 | 2.0 | 3.0 | 0.02 | 0.02 | 0.00 | 83 | 1014.2 |
| 20260509233045 | 63 | 198 | 0.0 | 0.0 | 0.02 | 0.02 | 0.00 | 83 | 1014.3 |
| 20260509232545 | 63 | 198 | 0.0 | 2.0 | 0.01 | 0.01 | 0.00 | 83 | 1014.4 |
| 20260509232045 | 63 | 198 | 0.0 | 4.0 | 0.01 | 0.01 | 0.00 | 82 | 1014.5 |
| 20260509231545 | 63 | 329 | 0.0 | 3.0 | 0.01 | 0.01 | 0.00 | 82 | 1014.5 |
| 20260509231048 | 63 | 263 | 1.0 | 2.0 | 0.01 | 0.01 | 0.00 | 81 | 1014.5 |
| 20260509230545 | 63 | 259 | 0.0 | 4.0 | 0.01 | 0.01 | 0.00 | 81 | 1014.5 |
| 20260509230048 | 63 | 236 | 1.0 | 3.0 | 0.00 | 0.00 | 0.00 | 79 | 1014.9 |
| 20260509225545 | 63 | 237 | 0.0 | 3.0 | 0.00 | 0.00 | 0.00 | 79 | 1014.8 |
| 20260509225048 | 63 | 229 | 1.0 | 7.0 | 0.00 | 0.00 | 0.00 | 79 | 1014.9 |
| 20260509224548 | 63 | 244 | 1.0 | 3.0 | 0.00 | 0.00 | 0.00 | 79 | 1014.8 |
| 20260509224045 | 63 | 277 | 1.0 | 5.0 | 0.00 | 0.00 | 0.00 | 79 | 1014.5 |
| 20260509223545 | 63 | 248 | 5.0 | 8.0 | 0.00 | 0.00 | 0.00 | 79 | 1014.2 |
| 20260509223045 | 63 | 173 | 1.0 | 6.0 | 0.00 | 0.00 | 0.00 | 78 | 1013.6 |
| 20260509222545 | 63 | 155 | 2.0 | 8.0 | 0.00 | 0.00 | 0.00 | 77 | 1013.2 |
| 20260509222045 | 63 | 134 | 1.0 | 7.0 | 0.00 | 0.00 | 0.00 | 77 | 1012.8 |
| 20260509221545 | 63 | 150 | 3.0 | 6.0 | 0.00 | 0.00 | 0.00 | 76 | 1012.8 |
| 20260509221045 | 64 | 173 | 3.0 | 8.0 | 0.00 | 0.00 | 0.00 | 75 | 1012.7 |
| 20260509220545 | 64 | 105 | 4.0 | 7.0 | 0.00 | 0.00 | 0.00 | 75 | 1012.5 |
| 20260509220045 | 64 | 121 | 4.0 | 7.0 | 0.00 | 0.00 | 0.00 | 75 | 1012.8 |
| 20260509215545 | 64 | 127 | 3.0 | 3.0 | 0.00 | 0.00 | 0.00 | 75 | 1013.2 |
| 20260509215048 | 64 | 127 | 0.0 | 1.0 | 0.00 | 0.00 | 0.00 | 76 | 1013.3 |
| 20260509214545 | 64 | 127 | 0.0 | 2.0 | 0.00 | 0.00 | 0.00 | 75 | 1013.2 |
| 20260509214045 | 64 | 127 | 0.0 | 2.0 | 0.00 | 0.00 | 0.00 | 76 | 1013.1 |
| 20260509213545 | 64 | 127 | 1.0 | 2.0 | 0.00 | 0.00 | 0.00 | 76 | 1013.2 |
| 20260509213045 | 64 | 127 | 0.0 | 1.0 | 0.00 | 0.00 | 0.00 | 77 | 1013.1 |
| 20260509212545 | 64 | 127 | 0.0 | 0.0 | 0.00 | 0.00 | 0.00 | 77 | 1013.0 |
| 20260509212045 | 63 | 127 | 0.0 | 0.0 | 0.00 | 0.00 | 0.00 | 78 | 1013.0 |
| 20260509211545 | 63 | 127 | 0.0 | 0.0 | 0.00 | 0.00 | 0.00 | 78 | 1013.0 |
| 20260509211045 | 63 | 127 | 0.0 | 0.0 | 0.00 | 0.00 | 0.00 | 78 | 1012.9 |
| 20260509210545 | 64 | 127 | 0.0 | 1.0 | 0.00 | 0.00 | 0.00 | 78 | 1012.8 |
| 20260509210045 | 64 | 127 | 0.0 | 1.0 | 0.00 | 0.00 | 0.00 | 78 | 1012.7 |
| 20260509205545 | 64 | 127 | 0.0 | 1.0 | 0.00 | 0.00 | 0.00 | 78 | 1012.8 |
| 20260509205045 | 64 | 127 | 0.0 | 3.0 | 0.00 | 0.00 | 0.00 | 78 | 1012.6 |
| 20260509204545 | 64 | 123 | 1.0 | 6.0 | 0.00 | 0.00 | 0.00 | 78 | 1012.4 |
| 20260509204045 | 63 | 109 | 2.0 | 7.0 | 0.00 | 0.00 | 0.00 | 79 | 1012.5 |
| 20260509203545 | 63 | 139 | 4.0 | 6.0 | 0.00 | 0.00 | 0.00 | 79 | 1012.6 |
| 20260509203048 | 64 | 155 | 4.0 | 8.0 | 0.00 | 0.00 | 0.00 | 78 | 1012.6 |
| 20260509202545 | 64 | 153 | 3.0 | 10.0 | 0.00 | 0.00 | 0.00 | 78 | 1012.2 |
| 20260509202045 | 64 | 114 | 3.0 | 9.0 | 0.00 | 0.00 | 0.00 | 77 | 1012.3 |
| 20260509201545 | 64 | 90 | 3.0 | 8.0 | 0.00 | 0.00 | 0.00 | 76 | 1012.2 |
| 20260509201045 | 64 | 117 | 3.0 | 8.0 | 0.00 | 0.00 | 0.00 | 75 | 1012.1 |
| 20260509200545 | 64 | 82 | 5.0 | 12.0 | 0.00 | 0.00 | 0.00 | 75 | 1012.0 |
| 20260509200048 | 65 | 83 | 11.0 | 11.0 | 0.00 | 0.00 | 0.00 | 76 | 1012.6 |
| 20260509195545 | 65 | 78 | 3.0 | 6.0 | 0.00 | 0.00 | 0.00 | 76 | 1013.1 |
| 20260509195045 | 64 | 140 | 2.0 | 3.0 | 0.00 | 0.00 | 0.00 | 76 | 1013.6 |
| 20260509194548 | 64 | 141 | 0.0 | 3.0 | 0.00 | 0.00 | 0.00 | 77 | 1013.7 |
| 20260509194045 | 64 | 141 | 3.0 | 5.0 | 0.00 | 0.00 | 0.00 | 78 | 1013.6 |
| 20260509193545 | 64 | 174 | 1.0 | 5.0 | 0.00 | 0.00 | 0.00 | 78 | 1013.4 |
| 20260509193045 | 64 | 174 | 3.0 | 5.0 | 0.00 | 0.00 | 0.00 | 79 | 1013.4 |
| 20260509192545 | 65 | 175 | 1.0 | 2.0 | 0.00 | 0.00 | 0.00 | 80 | 1013.4 |
| 20260509192045 | 65 | 175 | 1.0 | 4.0 | 0.00 | 0.00 | 0.00 | 79 | 1013.6 |
| 20260509191545 | 65 | 177 | 3.0 | 5.0 | 0.00 | 0.00 | 0.00 | 79 | 1013.6 |
| 20260509191048 | 66 | 227 | 0.0 | 2.0 | 0.00 | 0.00 | 0.00 | 79 | 1013.7 |
| 20260509190548 | 66 | 227 | 1.0 | 2.0 | 0.00 | 0.00 | 0.00 | 79 | 1013.6 |
| 20260509190045 | 65 | 227 | 0.0 | 2.0 | 0.00 | 0.00 | 0.00 | 79 | 1013.6 |
| 20260509185545 | 65 | 227 | 3.0 | 5.0 | 0.00 | 0.00 | 0.00 | 78 | 1013.5 |
| 20260509185045 | 65 | 215 | 3.0 | 5.0 | 0.00 | 0.00 | 0.00 | 78 | 1013.3 |
| 20260509184545 | 65 | 174 | 5.0 | 7.0 | 0.00 | 0.00 | 0.00 | 78 | 1013.0 |
| 20260509184045 | 65 | 151 | 4.0 | 8.0 | 0.00 | 0.00 | 0.00 | 77 | 1012.8 |
| 20260509183545 | 66 | 171 | 5.0 | 8.0 | 0.00 | 0.00 | 0.00 | 76 | 1012.8 |
| 20260509183045 | 66 | 165 | 4.0 | 5.0 | 0.00 | 0.00 | 0.00 | 76 | 1012.7 |
| 20260509182545 | 66 | 150 | 2.0 | 7.0 | 0.00 | 0.00 | 0.00 | 76 | 1012.6 |
| 20260509182045 | 66 | 172 | 2.0 | 5.0 | 0.00 | 0.00 | 0.00 | 76 | 1012.6 |
| 20260509181545 | 66 | 178 | 3.0 | 6.0 | 0.00 | 0.00 | 0.00 | 76 | 1012.7 |
| 20260509181045 | 66 | 175 | 1.0 | 7.0 | 0.00 | 0.00 | 0.00 | 76 | 1012.7 |
| 20260509180548 | 66 | 172 | 2.0 | 7.0 | 0.00 | 0.00 | 0.00 | 75 | 1012.6 |
| 20260509180045 | 67 | 175 | 6.0 | 8.0 | 0.00 | 0.00 | 0.00 | 74 | 1012.5 |
| 20260509175545 | 67 | 155 | 7.0 | 8.0 | 0.00 | 0.00 | 0.00 | 73 | 1012.6 |
| 20260509175048 | 67 | 162 | 6.0 | 7.0 | 0.00 | 0.00 | 0.00 | 73 | 1012.7 |
| 20260509174545 | 67 | 169 | 4.0 | 5.0 | 0.00 | 0.00 | 0.00 | 72 | 1012.8 |
| 20260509174048 | 67 | 171 | 2.0 | 5.0 | 0.00 | 0.00 | 0.00 | 71 | 1012.7 |
| 20260509173545 | 68 | 175 | 0.0 | 4.0 | 0.00 | 0.00 | 0.00 | 71 | 1012.8 |
| 20260509173045 | 67 | 176 | 1.0 | 3.0 | 0.00 | 0.00 | 0.00 | 70 | 1012.7 |
| 20260509172545 | 67 | 182 | 2.0 | 6.0 | 0.00 | 0.00 | 0.00 | 71 | 1012.4 |
| 20260509172048 | 67 | 85 | 2.0 | 5.0 | 0.00 | 0.00 | 0.00 | 71 | 1012.4 |
| 20260509171545 | 67 | 83 | 4.0 | 5.0 | 0.00 | 0.00 | 0.00 | 72 | 1012.3 |
| 20260509171045 | 67 | 90 | 3.0 | 8.0 | 0.00 | 0.00 | 0.00 | 74 | 1012.1 |
| 20260509170545 | 67 | 65 | 3.0 | 8.0 | 0.00 | 0.00 | 0.00 | 75 | 1012.0 |
| 20260509170045 | 67 | 92 | 4.0 | 6.0 | 0.00 | 0.00 | 0.00 | 75 | 1012.1 |
| 20260509165545 | 67 | 144 | 5.0 | 6.0 | 0.00 | 0.00 | 0.00 | 74 | 1012.3 |
| 20260509165045 | 67 | 171 | 2.0 | 5.0 | 0.00 | 0.00 | 0.00 | 74 | 1012.6 |
| 20260509164545 | 67 | 172 | 3.0 | 6.0 | 0.00 | 0.00 | 0.00 | 73 | 1012.8 |
| 20260509164045 | 68 | 174 | 1.0 | 4.0 | 0.00 | 0.00 | 0.00 | 73 | 1012.9 |
| 20260509163548 | 68 | 173 | 5.0 | 6.0 | 0.00 | 0.00 | 0.00 | 72 | 1013.1 |
| 20260509163045 | 69 | 169 | 2.0 | 5.0 | 0.00 | 0.00 | 0.00 | 71 | 1013.1 |
| 20260509162545 | 69 | 169 | 1.0 | 6.0 | 0.00 | 0.00 | 0.00 | 70 | 1013.2 |
| 20260509162045 | 70 | 179 | 2.0 | 4.0 | 0.00 | 0.00 | 0.00 | 68 | 1013.2 |
| 20260509161545 | 70 | 217 | 1.0 | 3.0 | 0.00 | 0.00 | 0.00 | 68 | 1013.3 |
| 20260509161045 | 70 | 224 | 1.0 | 4.0 | 0.00 | 0.00 | 0.00 | 68 | 1013.3 |
| 20260509160545 | 70 | 232 | 4.0 | 4.0 | 0.00 | 0.00 | 0.00 | 68 | 1013.4 |
| 20260509160045 | 71 | 209 | 0.0 | 6.0 | 0.00 | 0.00 | 0.00 | 67 | 1013.4 |
| 20260509155545 | 71 | 194 | 0.0 | 6.0 | 0.00 | 0.00 | 0.00 | 67 | 1013.3 |
| 20260509155045 | 70 | 191 | 2.0 | 5.0 | 0.00 | 0.00 | 0.00 | 66 | 1013.3 |
| 20260509154545 | 71 | 180 | 1.0 | 4.0 | 0.00 | 0.00 | 0.00 | 66 | 1013.2 |
| 20260509154045 | 71 | 211 | 1.0 | 3.0 | 0.00 | 0.00 | 0.00 | 66 | 1013.2 |
| 20260509153545 | 71 | 250 | 0.0 | 4.0 | 0.00 | 0.00 | 0.00 | 66 | 1013.2 |
| 20260509153045 | 70 | 200 | 0.0 | 3.0 | 0.00 | 0.00 | 0.00 | 68 | 1013.1 |
| 20260509152545 | 70 | 312 | 1.0 | 4.0 | 0.00 | 0.00 | 0.00 | 68 | 1013.3 |
| 20260509152045 | 71 | 145 | 3.0 | 3.0 | 0.00 | 0.00 | 0.00 | 68 | 1013.4 |
| 20260509151545 | 71 | 33 | 1.0 | 4.0 | 0.00 | 0.00 | 0.00 | 67 | 1013.5 |
| 20260509151045 | 71 | 217 | 2.0 | 9.0 | 0.00 | 0.00 | 0.00 | 66 | 1013.5 |
| 20260509150548 | 72 | 266 | 4.0 | 6.0 | 0.00 | 0.00 | 0.00 | 65 | 1013.5 |
| 20260509150045 | 72 | 253 | 5.0 | 6.0 | 0.00 | 0.00 | 0.00 | 63 | 1013.5 |
| 20260509145545 | 72 | 241 | 1.0 | 4.0 | 0.00 | 0.00 | 0.00 | 64 | 1013.4 |
| 20260509145045 | 73 | 192 | 1.0 | 7.0 | 0.00 | 0.00 | 0.00 | 62 | 1013.5 |
| 20260509144545 | 73 | 56 | 4.0 | 5.0 | 0.00 | 0.00 | 0.00 | 61 | 1013.5 |
| 20260509144045 | 74 | 162 | 0.0 | 9.0 | 0.00 | 0.00 | 0.00 | 59 | 1013.5 |
| 20260509143545 | 74 | 229 | 7.0 | 8.0 | 0.00 | 0.00 | 0.00 | 57 | 1013.5 |
| 20260509143045 | 74 | 218 | 3.0 | 9.0 | 0.00 | 0.00 | 0.00 | 55 | 1013.6 |
| 20260509142548 | 74 | 200 | 0.0 | 7.0 | 0.00 | 0.00 | 0.00 | 51 | 1013.7 |
| 20260509142046 | 74 | 203 | 3.0 | 5.0 | 0.00 | 0.00 | 0.00 | 52 | 1013.8 |
| 20260509141545 | 74 | 213 | 4.0 | 7.0 | 0.00 | 0.00 | 0.00 | 52 | 1013.8 |
| 20260509141045 | 74 | 169 | 0.0 | 6.0 | 0.00 | 0.00 | 0.00 | 49 | 1013.8 |
| 20260509140545 | 74 | 208 | 1.0 | 3.0 | 0.00 | 0.00 | 0.00 | 55 | 1013.8 |
| 20260509140045 | 74 | 209 | 2.0 | 4.0 | 0.00 | 0.00 | 0.00 | 56 | 1013.9 |
| 20260509135545 | 74 | 289 | 0.0 | 4.0 | 0.00 | 0.00 | 0.00 | 58 | 1014.0 |
| 20260509135045 | 74 | 67 | 1.0 | 3.0 | 0.00 | 0.00 | 0.00 | 58 | 1014.1 |
| 20260509134548 | 74 | 138 | 0.0 | 4.0 | 0.00 | 0.00 | 0.00 | 58 | 1014.3 |
| 20260509134045 | 74 | 206 | 1.0 | 6.0 | 0.00 | 0.00 | 0.00 | 57 | 1014.4 |
| 20260509133545 | 74 | 205 | 0.0 | 6.0 | 0.00 | 0.00 | 0.00 | 57 | 1014.5 |